Skip Page Navigation
NASA JPL Caltech
NASA Logo - Jet Propulsion Laboratory + View the NASA Portal
+ Center for Near-Earth Object Studies
JPL Home Earth Solar System Stars & Galaxies Technology
JPL Solar System Dynamics
BODIES ORBITS EPHEMERIDES TOOLS PHYSICAL DATA DISCOVERY FAQ SITE MAP
IMPORTANT: The SSD Announcement email list is now available. Major changes are coming in the near future, including possible hostname and/or URL changes. To be notified of such changes, subscribe to this email list.

Please visit this page for more details.


JPL Small-Body Database Browser
Search: [ help ]  
27280 Manettedavies (2000 AJ65)
Classification: Main-belt Asteroid          SPK-ID: 2027280
Ephemeris | Orbit Diagram | Orbital Elements | Mission Design | Physical Parameters | Discovery Circumstances ]

[ show orbit diagram ]
Orbital Elements at Epoch 2458600.5 (2019-Apr-27.0) TDB
Reference: JPL 24 (heliocentric ecliptic J2000)
 Element Value Uncertainty (1-sigma)   Units 
e .03082047578725173 4.3417e-08  
a 2.275526351625279 8.5838e-09 au
q 2.205393546801758 1.0104e-07 au
i 3.947415097662879 3.8218e-06 deg
node 93.96963277073105 6.9816e-05 deg
peri 59.3399734324536 9.8451e-05 deg
M 200.9352878403014 6.9938e-05 deg
tp 2459154.478071158442
(2020-Oct-31.97807116)
0.0002438 TDB
period 1253.779690726202
3.43
7.0943e-06
1.942e-08
d
yr
n .287131784525465 1.6247e-09 deg/d
Q 2.345659156448799 8.8484e-09 au
  Orbit Determination Parameters
   # obs. used (total)      1321  
   data-arc span      10301 days (28.20 yr)  
   first obs. used      1991-09-15  
   last obs. used      2019-11-28  
   planetary ephem.      DE431  
   SB-pert. ephem.      SB431-N16  
   condition code      0  
   norm. resid. RMS      .50082  
   source      ORB  
   producer      Otto Matic  
   solution date      2019-Dec-04 01:02:16  

Additional Information
 Earth MOID = 1.21886 au 
 Jupiter MOID = 2.62811 au 
 T_jup = 3.606 
[ show covariance matrix ]

Ephemeris | Orbit Diagram | Orbital Elements | Mission Design | Physical Parameters | Discovery Circumstances ]

Physical Parameter Table
Parameter Symbol Value Units Sigma Reference Notes
absolute magnitude H 14.8   n/a MPO299153  
diameter diameter 3.424 km 0.177 urn:nasa:pds:neowise_diameters_albedos::2.0[mainbelt] (http://adsabs.harvard.edu/abs/2011ApJ...741...68M)  
geometric albedo albedo 0.239   0.051 urn:nasa:pds:neowise_diameters_albedos::2.0[mainbelt] (http://adsabs.harvard.edu/abs/2011ApJ...741...68M)  

27280 Manettedavies           Discovered 2000 Jan. 4 by the Lincoln Laboratory Near-Earth Asteroid Research Team at Socorro.
Manette Davies mentored a finalist in the 2011 Intel Science Talent Search, a science competition for high-school seniors. She teaches at the Walnut High School, Walnut, California, U.S.A.
NOTE: some special characters may not display properly (any characters within {} are an attempt to place the proper accent above a character)
Reference: 20110319/MPCPages.arcLast Updated: 2011-03-23

Alternate Designations
 2000 AJ65 = 1991 RP37 = 1998 RE44 
Ephemeris | Orbit Diagram | Orbital Elements | Mission Design | Physical Parameters | Discovery Circumstances ]
ABOUT SSD CREDITS/AWARDS PRIVACY/COPYRIGHT GLOSSARY LINKS
FirstGov 2019-Dec-10 08:18 UT
(server date/time)  
NASA Home Page
Site Manager:   Ryan S. Park
Webmaster  Alan B. Chamberlin